Location: Melara
(45.0500°N, 11.1833°E)
Time: 20:02:35
(UTC+00:00)

Cosmos 1271 Rocket - Pass Details

Date: 26 May 2022
Orbit: 495 x 539 km, 81.2° (Epoch: 02 July)

Event Time Altitude Azimuth Distance (km) Brightness Sun altitude
Rises 02:25:44 0° 337° (NNW) 2,627 6.6 -10.6°
Reaches altitude 10° 02:28:06 10° 324° (NW) 1,743 5.5 -10.3°
Maximum altitude 02:31:15 25° 268° (W) 1,076 3.9 -9.9°
Enters shadow 02:33:55 13° 218° (SW) 1,578 4.5 -9.5°
